STARLINK-35351

Last updated on Mon Oct 20 2025 00:02:05 GMT+0000 (Coordinated Universal Time)

1 65668U 25211S 25292.11255113 .00082492 00000+0 15005-2 0 9998 2 65668 97.6038 334.2774 0000655 142.7655 217.3641 15.49227454 5723
UTC large
Height (km)
Speed (km/s)
/
Latitude / Longitude
Inclination (degrees)
Orbital Period (minutes)
Azimuth
Elevation
Range (km)
Doppler Factor

Next 0 passes for location: London (51.5072 / 0.1276)

Sorry there are no passes over London.